QPF
0.00 0.00 0.00 0.00 0.00 0.00 0.00 0.00 0.00 0.00 0.00 0.00 0.00 0.00 0.00 0.00 0.00 0.00 0.00 0.00 0.00 0.00 0.00 0.01 0.00 0.00 0.01 0.01 0.00 0.00 0.00 0.01 0.01 0.00 0.00 0.00 0.00 0.00 0.00 0.00 0.00 0.01 0.01 0.00 0.01 0.02 0.01 0.02 0.00
0.00 0.00 0.00 0.00 0.00 0.00 0.00 0.00 0.00 0.00 0.00 0.00 0.00 0.00 0.00 0.00 0.00 0.00 0.00 0.00 0.00 0.00 0.00 0.01 0.01 0.00 0.01 0.01 0.00 0.00 0.00 0.01 0.01 0.00 0.00 0.00 0.00 0.00 0.00 0.00 0.00 0.00 0.00 0.00 0.00 0.00 0.01 0.01 0.00
0.00 0.00 0.00 0.00 0.00 0.00 0.00 0.00 0.00 0.00 0.00 0.00 0.00 0.00 0.00 0.00 0.00 0.00 0.00 0.00 0.00 0.00 0.00 0.02 0.04 0.06 0.04 0.02 0.00 0.00 0.00 0.00 0.01 0.00 0.00 0.00 0.00 0.00 0.00 0.00 0.00 0.00 0.00 0.00 0.00 0.00 0.00 0.00 0.00
0.00 0.00 0.00 0.00 0.00 0.00 0.00 0.00 0.00 0.00 0.00 0.00 0.00 0.00 0.00 0.00 0.00 0.00 0.00 0.00 0.00 0.00 0.00 0.02 0.11 0.09 0.14 0.05 0.01 0.00 0.00 0.00 0.01 0.00 0.00 0.00 0.00 0.00 0.00 0.00 0.01 0.01 0.00 0.00 0.00 0.00 0.00 0.00 0.00
0.00 0.00 0.00 0.00 0.00 0.00 0.00 0.00 0.00 0.00 0.00 0.00 0.00 0.00 0.00 0.00 0.00 0.00 0.00 0.00 0.00 0.00 0.00 0.01 0.08 0.07 0.10 0.05 0.02 0.00 0.00 0.00 0.01 0.00 0.00 0.00 0.00 0.00 0.00 0.01 0.01 0.00 0.00 0.00 0.00 0.00 0.02 0.02 0.01
0.00 0.00 0.00 0.00 0.00 0.00 0.00 0.00 0.00 0.00 0.00 0.00 0.00 0.00 0.00 0.00 0.00 0.00 0.00 0.00 0.00 0.00 0.00 0.05 0.08 0.08 0.05 0.13 0.05 0.01 0.00 0.00 0.01 0.00 0.00 0.00 0.00 0.00 0.00 0.00 0.00 0.00 0.01 0.00 0.00 0.01 0.02 0.02 0.01
0.00 0.00 0.00 0.00 0.00 0.00 0.00 0.00 0.00 0.00 0.00 0.00 0.00 0.00 0.00 0.00 0.00 0.00 0.00 0.01 0.00 0.00 0.00 0.04 0.08 0.11 0.14 0.21 0.26 0.11 0.01 0.00 0.01 0.02 0.00 0.00 0.00 0.00 0.00 0.00 0.00 0.00 0.01 0.00 0.00 0.01 0.02 0.02 0.00
0.00 0.00 0.00 0.00 0.00 0.00 0.00 0.00 0.00 0.00 0.00 0.00 0.00 0.00 0.00 0.00 0.00 0.00 0.00 0.03 0.02 0.00 0.00 0.02 0.04 0.04 0.04 0.12 0.32 0.39 0.12 0.04 0.03 0.05 0.04 0.00 0.00 0.00 0.00 0.00 0.00 0.00 0.01 0.00 0.00 0.00 0.02 0.01 0.01
0.00 0.00 0.00 0.00 0.00 0.00 0.00 0.00 0.00 0.00 0.00 0.00 0.00 0.00 0.00 0.00 0.00 0.00 0.00 0.00 0.03 0.02 0.00 0.02 0.03 0.03 0.00 0.00 0.15 0.29 0.42 0.22 0.10 0.04 0.05 0.02 0.00 0.00 0.00 0.00 0.00 0.00 0.01 0.00 0.00 0.01 0.00 0.00 0.00
0.00 0.00 0.00 0.00 0.00 0.00 0.00 0.00 0.00 0.00 0.00 0.00 0.00 0.00 0.00 0.00 0.00 0.00 0.00 0.00 0.03 0.02 0.00 0.00 0.01 0.02 0.04 0.02 0.16 0.34 0.38 0.27 0.18 0.07 0.03 0.06 0.03 0.00 0.00 0.01 0.03 0.01 0.01 0.00 0.00 0.00 0.00 0.00 0.00
0.00 0.00 0.00 0.00 0.00 0.00 0.00 0.00 0.00 0.00 0.00 0.00 0.00 0.00 0.00 0.00 0.00 0.00 0.00 0.00 0.00 0.01 0.00 0.00 0.00 0.00 0.01 0.01 0.03 0.09 0.19 0.17 0.17 0.19 0.17 0.11 0.05 0.00 0.00 0.00 0.02 0.01 0.01 0.00 0.00 0.00 0.00 0.00 0.00
0.00 0.00 0.00 0.00 0.00 0.00 0.00 0.00 0.00 0.00 0.00 0.00 0.00 0.00 0.00 0.00 0.00 0.00 0.00 0.00 0.00 0.00 0.00 0.00 0.03 0.02 0.01 0.01 0.00 0.00 0.06 0.11 0.08 0.13 0.23 0.31 0.08 0.01 0.00 0.00 0.00 0.00 0.00 0.00 0.00 0.00 0.00 0.00 0.00
0.00 0.00 0.00 0.00 0.00 0.00 0.00 0.00 0.00 0.00 0.00 0.00 0.00 0.00 0.00 0.00 0.00 0.00 0.00 0.00 0.00 0.00 0.00 0.00 0.00 0.04 0.04 0.02 0.00 0.00 0.01 0.02 0.01 0.01 0.05 0.22 0.14 0.05 0.00 0.00 0.00 0.00 0.00 0.00 0.00 0.00 0.00 0.00 0.00
0.00 0.00 0.00 0.00 0.00 0.00 0.00 0.00 0.00 0.00 0.00 0.00 0.00 0.00 0.00 0.00 0.00 0.00 0.00 0.00 0.00 0.00 0.00 0.00 0.00 0.00 0.00 0.03 0.00 0.00 0.00 0.00 0.00 0.00 0.01 0.07 0.09 0.06 0.01 0.00 0.00 0.00 0.00 0.00 0.00 0.00 0.00 0.00 0.00
0.00 0.00 0.00 0.00 0.00 0.00 0.00 0.00 0.00 0.00 0.00 0.00 0.00 0.00 0.00 0.00 0.00 0.00 0.00 0.00 0.00 0.00 0.00 0.00 0.00 0.00 0.00 0.00 0.00 0.00 0.00 0.01 0.02 0.01 0.00 0.05 0.07 0.05 0.01 0.00 0.00 0.00 0.00 0.00 0.00 0.00 0.00 0.00 0.00
0.00 0.00 0.00 0.00 0.00 0.00 0.00 0.00 0.00 0.00 0.00 0.00 0.00 0.00 0.00 0.00 0.00 0.00 0.00 0.00 0.00 0.00 0.00 0.00 0.00 0.00 0.00 0.00 0.00 0.00 0.00 0.02 0.05 0.06 0.02 0.04 0.08 0.05 0.00 0.00 0.00 0.00 0.00 0.00 0.00 0.00 0.00 0.00 0.00
0.00 0.00 0.00 0.00 0.00 0.00 0.00 0.00 0.00 0.00 0.00 0.00 0.00 0.00 0.00 0.00 0.00 0.00 0.00 0.00 0.00 0.00 0.00 0.00 0.00 0.00 0.00 0.00 0.00 0.00 0.00 0.01 0.04 0.05 0.06 0.08 0.10 0.05 0.01 0.01 0.00 0.00 0.00 0.00 0.00 0.00 0.00 0.00 0.00
0.00 0.00 0.00 0.00 0.00 0.00 0.00 0.00 0.00 0.00 0.00 0.00 0.00 0.00 0.00 0.00 0.00 0.00 0.00 0.00 0.00 0.00 0.00 0.00 0.00 0.00 0.00 0.00 0.00 0.00 0.01 0.03 0.04 0.03 0.02 0.05 0.09 0.07 0.01 0.01 0.00 0.00 0.00 0.00 0.00 0.00 0.00 0.00 0.00
0.00 0.00 0.00 0.00 0.00 0.00 0.00 0.00 0.00 0.00 0.00 0.00 0.00 0.00 0.00 0.00 0.00 0.00 0.00 0.00 0.00 0.00 0.00 0.00 0.00 0.00 0.00 0.00 0.00 0.00 0.00 0.02 0.06 0.03 0.02 0.01 0.05 0.07 0.01 0.00 0.00 0.00 0.00 0.00 0.00 0.00 0.00 0.00 0.00
0.00 0.00 0.00 0.00 0.00 0.00 0.00 0.00 0.00 0.00 0.00 0.00 0.00 0.00 0.00 0.00 0.00 0.00 0.00 0.00 0.00 0.00 0.00 0.00 0.00 0.00 0.00 0.00 0.00 0.01 0.00 0.02 0.06 0.03 0.01 0.01 0.05 0.08 0.01 0.00 0.00 0.00 0.00 0.00 0.00 0.00 0.00 0.00 0.00
0.00 0.00 0.00 0.00 0.00 0.00 0.00 0.00 0.00 0.00 0.00 0.00 0.00 0.00 0.00 0.00 0.00 0.00 0.00 0.00 0.00 0.00 0.01 0.02 0.05 0.02 0.02 0.01 0.00 0.01 0.01 0.01 0.04 0.02 0.02 0.02 0.05 0.08 0.02 0.00 0.00 0.00 0.00 0.00 0.00 0.00 0.00 0.00 0.00
0.00 0.00 0.00 0.00 0.00 0.00 0.00 0.00 0.00 0.00 0.00 0.00 0.00 0.00 0.00 0.00 0.00 0.01 0.01 0.01 0.03 0.04 0.03 0.03 0.05 0.07 0.03 0.01 0.00 0.00 0.03 0.02 0.02 0.01 0.02 0.04 0.05 0.07 0.04 0.00 0.00 0.00 0.00 0.00 0.00 0.00 0.00 0.00 0.00
0.00 0.00 0.00 0.00 0.00 0.00 0.00 0.00 0.00 0.00 0.00 0.00 0.00 0.00 0.00 0.00 0.00 0.01 0.01 0.03 0.02 0.03 0.01 0.01 0.02 0.05 0.07 0.05 0.05 0.02 0.04 0.05 0.04 0.01 0.02 0.04 0.06 0.09 0.04 0.00 0.00 0.00 0.00 0.00 0.00 0.00 0.00 0.00 0.00
0.00 0.00 0.00 0.00 0.00 0.00 0.00 0.00 0.00 0.00 0.00 0.00 0.00 0.00 0.00 0.00 0.00 0.00 0.00 0.01 0.01 0.01 0.00 0.00 0.00 0.03 0.09 0.16 0.14 0.15 0.16 0.07 0.06 0.03 0.02 0.01 0.05 0.05 0.01 0.00 0.00 0.00 0.00 0.00 0.00 0.00 0.00 0.00 0.00
0.00 0.00 0.00 0.00 0.00 0.00 0.00 0.00 0.00 0.00 0.00 0.00 0.00 0.00 0.00 0.00 0.00 0.00 0.00 0.00 0.00 0.00 0.01 0.01 0.02 0.05 0.10 0.06 0.04 0.06 0.09 0.11 0.11 0.04 0.03 0.00 0.00 0.01 0.01 0.00 0.00 0.00 0.00 0.00 0.00 0.00 0.00 0.00 0.00
0.00 0.00 0.00 0.00 0.00 0.00 0.00 0.00 0.00 0.00 0.00 0.00 0.00 0.00 0.00 0.00 0.00 0.00 0.00 0.01 0.00 0.00 0.00 0.00 0.00 0.01 0.01 0.01 0.00 0.02 0.04 0.10 0.09 0.04 0.01 0.00 0.00 0.00 0.00 0.00 0.00 0.00 0.00 0.00 0.00 0.00 0.00 0.00 0.00
0.00 0.00 0.00 0.00 0.00 0.00 0.00 0.00 0.00 0.00 0.00 0.00 0.00 0.00 0.00 0.00 0.00 0.00 0.00 0.00 0.00 0.00 0.00 0.00 0.00 0.00 0.00 0.00 0.00 0.00 0.01 0.02 0.01 0.01 0.00 0.00 0.00 0.00 0.00 0.00 0.00 0.00 0.00 0.00 0.00 0.00 0.00 0.00 0.00
0.00 0.00 0.00 0.00 0.00 0.00 0.00 0.00 0.00 0.00 0.00 0.00 0.00 0.00 0.00 0.00 0.00 0.00 0.00 0.00 0.00 0.00 0.00 0.00 0.00 0.00 0.00 0.00 0.00 0.00 0.00 0.00 0.00 0.00 0.00 0.00 0.00 0.00 0.00 0.00 0.00 0.00 0.00 0.00 0.00 0.00 0.00 0.00 0.00
0.00 0.00 0.00 0.00 0.00 0.00 0.00 0.00 0.00 0.00 0.00 0.00 0.00 0.00 0.00 0.00 0.00 0.00 0.00 0.00 0.00 0.00 0.00 0.00 0.00 0.00 0.00 0.00 0.00 0.00 0.00 0.00 0.00 0.00 0.00 0.00 0.00 0.00 0.00 0.00 0.00 0.00 0.00 0.00 0.00 0.00 0.00 0.00 0.00
0.00 0.00 0.00 0.00 0.00 0.00 0.00 0.00 0.00 0.00 0.00 0.00 0.00 0.00 0.00 0.00 0.00 0.00 0.00 0.00 0.00 0.00 0.00 0.00 0.00 0.00 0.00 0.00 0.00 0.00 0.00 0.00 0.00 0.00 0.00 0.00 0.00 0.00 0.00 0.00 0.00 0.00 0.00 0.00 0.00 0.00 0.00 0.00 0.00
MSLP
1013.08 1012.63 1012.19 1011.76 1011.55 1010.51 1009.76 1010.23 1010.67 1010.32 1009.74 1009.84 1009.61 1009.38 1009.00 1008.88 1008.75 1009.48 1011.20 1011.22 1011.53 1011.38 1011.63 1012.61 1013.05 1013.21 1013.65 1013.82 1014.09 1014.41 1014.81 1015.01 1015.17 1015.33 1015.49 1015.59 1015.79 1015.88 1015.89 1015.88 1015.90 1015.93 1015.86 1015.82 1015.88 1015.93 1016.01 1016.06 1016.11
1012.97 1012.60 1011.99 1011.38 1010.77 1009.86 1009.68 1010.41 1010.76 1010.79 1010.48 1010.21 1009.59 1009.20 1009.14 1008.95 1009.91 1010.25 1010.62 1011.34 1011.39 1011.36 1011.67 1012.34 1013.16 1013.27 1013.73 1014.08 1014.29 1014.40 1014.67 1015.05 1015.23 1015.45 1015.72 1015.80 1015.93 1016.10 1016.21 1016.23 1016.23 1016.20 1016.20 1016.18 1016.19 1016.28 1016.41 1016.47 1016.58
1013.01 1012.41 1011.49 1010.88 1010.35 1009.69 1009.80 1010.65 1010.99 1011.01 1010.79 1010.35 1009.64 1009.74 1009.67 1010.07 1010.59 1010.79 1011.24 1011.36 1011.20 1011.34 1011.70 1012.42 1013.18 1013.53 1013.78 1014.24 1014.39 1014.69 1014.81 1015.05 1015.32 1015.52 1015.82 1015.98 1016.06 1016.14 1016.40 1016.55 1016.55 1016.59 1016.63 1016.61 1016.62 1016.70 1016.78 1016.83 1017.03
1012.66 1012.14 1012.02 1011.09 1010.16 1010.84 1010.75 1010.81 1011.27 1010.95 1010.70 1010.61 1010.40 1009.76 1010.54 1011.44 1011.41 1011.50 1011.50 1011.46 1011.25 1011.35 1011.67 1012.60 1013.22 1013.59 1013.99 1014.24 1014.64 1014.71 1015.01 1015.11 1015.41 1015.62 1015.95 1016.16 1016.24 1016.32 1016.50 1016.71 1016.89 1016.95 1017.05 1017.03 1017.06 1017.17 1017.17 1017.28 1017.42
1012.62 1011.99 1011.36 1010.94 1010.65 1011.14 1011.26 1011.42 1011.52 1011.05 1010.95 1010.68 1010.65 1010.06 1010.51 1011.37 1011.78 1011.78 1011.56 1011.59 1011.33 1011.40 1011.53 1012.48 1013.28 1013.64 1013.93 1014.22 1014.55 1014.85 1015.10 1015.22 1015.47 1015.75 1015.99 1016.26 1016.44 1016.56 1016.72 1016.85 1017.16 1017.33 1017.46 1017.47 1017.42 1017.56 1017.67 1017.65 1017.88
1012.17 1012.25 1011.29 1010.68 1010.94 1011.45 1011.42 1011.56 1011.56 1011.40 1011.21 1010.99 1010.75 1010.53 1010.94 1011.72 1011.77 1012.01 1012.09 1011.70 1011.57 1011.56 1011.73 1012.32 1013.37 1013.71 1013.85 1014.01 1014.45 1014.74 1015.07 1015.29 1015.64 1015.79 1016.06 1016.35 1016.57 1016.79 1016.93 1017.03 1017.22 1017.59 1017.85 1017.82 1017.86 1018.01 1018.04 1018.13 1018.30
1012.09 1012.02 1011.39 1011.31 1011.27 1011.46 1011.37 1011.73 1011.39 1011.40 1011.37 1011.24 1011.55 1010.80 1011.14 1011.63 1012.25 1012.29 1012.46 1012.25 1011.87 1011.63 1011.82 1012.50 1012.96 1013.51 1013.94 1013.93 1014.37 1014.61 1014.76 1015.14 1015.53 1015.87 1016.10 1016.49 1016.77 1016.98 1017.17 1017.25 1017.34 1017.73 1018.07 1018.21 1018.24 1018.43 1018.43 1018.57 1018.73
1012.74 1012.44 1011.90 1011.59 1011.29 1011.21 1011.69 1011.82 1011.89 1011.69 1011.43 1011.89 1011.74 1010.84 1010.99 1012.08 1012.52 1012.60 1012.50 1012.80 1012.32 1012.09 1012.23 1013.07 1013.09 1013.44 1013.63 1014.13 1014.43 1014.63 1014.82 1014.99 1015.36 1015.88 1016.23 1016.52 1016.97 1017.29 1017.41 1017.55 1017.57 1017.81 1018.18 1018.50 1018.63 1018.78 1018.91 1019.08 1019.23
1013.34 1012.32 1011.40 1011.44 1011.65 1011.43 1011.89 1011.82 1011.95 1012.10 1011.81 1011.81 1011.82 1011.74 1012.13 1012.48 1012.73 1012.65 1012.66 1013.00 1013.20 1013.02 1012.80 1012.92 1013.03 1013.18 1013.35 1013.77 1013.97 1014.41 1014.97 1014.95 1015.59 1016.05 1016.36 1016.52 1016.83 1017.22 1017.53 1017.38 1017.96 1018.09 1018.27 1018.58 1018.98 1019.33 1019.37 1019.50 1019.81
1012.86 1011.97 1011.67 1011.96 1011.87 1011.76 1011.96 1011.98 1011.83 1011.95 1011.64 1011.65 1011.90 1012.17 1012.51 1012.49 1012.26 1012.30 1012.56 1012.69 1013.17 1013.14 1013.26 1013.09 1013.15 1013.35 1013.83 1014.04 1014.67 1014.99 1015.21 1015.98 1015.96 1015.61 1016.07 1016.12 1016.45 1016.56 1016.88 1017.65 1018.12 1018.52 1018.61 1018.81 1019.16 1019.70 1019.87 1019.33 1019.54
1012.80 1011.84 1012.03 1012.14 1012.21 1012.22 1012.02 1011.97 1012.01 1011.87 1011.75 1012.09 1012.29 1012.48 1012.74 1012.79 1012.67 1012.61 1012.64 1012.76 1012.82 1012.82 1013.37 1013.43 1013.40 1013.41 1013.74 1014.00 1014.76 1015.43 1015.43 1015.74 1016.15 1016.64 1016.08 1016.12 1016.59 1016.93 1017.13 1017.64 1018.22 1018.48 1018.86 1019.01 1019.42 1019.88 1019.38 1019.37 1019.46
1012.45 1012.21 1012.31 1012.28 1012.42 1012.33 1012.04 1011.85 1011.81 1011.99 1011.95 1012.62 1013.05 1013.09 1013.04 1012.83 1012.78 1012.88 1013.03 1013.00 1012.97 1012.93 1012.94 1013.19 1013.53 1013.58 1013.52 1013.76 1014.20 1014.85 1015.45 1015.48 1016.06 1016.82 1017.16 1016.91 1016.96 1017.14 1016.97 1017.08 1017.52 1017.88 1018.11 1018.84 1019.23 1019.50 1019.81 1019.83 1019.81
1012.38 1012.15 1012.36 1012.39 1012.45 1012.33 1012.17 1011.85 1011.82 1011.91 1012.51 1012.97 1013.29 1013.29 1013.17 1013.05 1012.93 1012.89 1013.07 1013.20 1013.25 1012.94 1013.02 1013.10 1013.18 1013.58 1013.91 1014.20 1013.85 1014.34 1015.15 1015.75 1015.75 1015.52 1017.24 1017.60 1017.45 1017.38 1017.39 1017.21 1017.60 1017.98 1018.29 1019.01 1019.45 1019.78 1019.97 1020.01 1020.00
1012.34 1012.42 1012.20 1012.09 1011.95 1012.00 1011.90 1011.59 1012.13 1011.68 1012.52 1012.84 1013.07 1013.08 1013.09 1013.07 1012.98 1012.87 1012.73 1012.65 1012.61 1012.75 1013.01 1013.21 1013.16 1013.06 1013.34 1013.85 1013.73 1013.76 1014.11 1014.80 1015.23 1015.73 1015.73 1016.16 1016.86 1017.39 1017.66 1017.76 1017.99 1018.24 1018.86 1019.49 1019.88 1020.15 1020.33 1020.54 1020.56
1012.66 1012.35 1011.71 1011.55 1011.68 1011.56 1011.86 1011.49 1011.22 1011.40 1012.32 1012.37 1012.62 1012.77 1012.99 1013.12 1013.17 1012.78 1012.73 1012.68 1012.64 1012.51 1012.69 1012.97 1013.18 1012.92 1013.12 1013.24 1013.30 1013.54 1013.60 1014.01 1014.68 1015.08 1015.19 1015.60 1016.05 1016.58 1017.37 1017.71 1018.20 1018.32 1018.73 1019.33 1019.80 1020.20 1020.51 1020.69 1021.04
1012.38 1012.24 1011.12 1011.21 1011.59 1011.73 1011.86 1010.29 1010.57 1011.60 1011.92 1011.85 1012.11 1012.23 1012.64 1012.73 1012.81 1012.67 1012.77 1012.69 1012.61 1012.41 1012.25 1012.49 1012.70 1012.70 1012.87 1012.92 1013.34 1013.58 1013.42 1013.49 1013.92 1014.18 1014.47 1014.92 1015.33 1016.55 1016.98 1017.48 1018.03 1018.31 1018.77 1019.42 1019.94 1020.44 1020.83 1021.07 1021.40
1011.88 1010.84 1011.01 1010.99 1011.47 1011.49 1011.50 1010.20 1010.75 1011.49 1011.65 1011.54 1011.80 1011.99 1012.17 1012.30 1012.37 1012.33 1012.50 1012.56 1012.35 1012.23 1012.03 1012.13 1012.44 1012.29 1012.53 1012.98 1012.94 1013.00 1013.41 1013.18 1013.52 1013.83 1014.17 1014.76 1015.46 1016.03 1016.89 1017.82 1018.02 1018.47 1018.96 1019.46 1020.02 1020.53 1020.99 1021.32 1021.67
1010.67 1010.90 1010.90 1010.89 1011.25 1011.38 1010.99 1010.35 1010.31 1011.10 1011.42 1011.40 1011.78 1011.94 1011.90 1011.93 1011.81 1012.19 1012.27 1012.14 1012.03 1011.93 1011.87 1011.92 1012.14 1012.04 1012.28 1012.82 1012.89 1013.07 1013.34 1013.28 1013.45 1013.69 1014.12 1015.02 1015.28 1016.14 1017.39 1018.06 1018.17 1018.69 1018.97 1019.73 1020.03 1020.68 1021.17 1021.53 1021.96
1011.36 1011.18 1010.81 1010.75 1011.25 1011.50 1010.49 1010.17 1010.19 1010.56 1011.22 1011.55 1011.87 1011.94 1011.97 1011.89 1011.85 1011.78 1011.55 1011.47 1011.49 1011.65 1011.57 1011.32 1011.48 1011.69 1012.12 1012.81 1012.60 1012.72 1013.06 1013.26 1013.71 1013.86 1014.03 1014.76 1015.47 1016.62 1017.32 1018.00 1017.91 1018.57 1018.99 1019.56 1020.10 1020.73 1021.16 1021.78 1022.15
1011.51 1011.13 1010.78 1010.85 1011.31 1011.52 1010.37 1009.93 1009.82 1010.62 1011.08 1011.88 1012.17 1012.16 1012.34 1012.33 1012.13 1011.97 1011.45 1011.12 1011.00 1011.04 1010.98 1010.89 1010.96 1011.34 1011.99 1012.47 1012.50 1012.83 1013.03 1013.51 1013.74 1014.12 1014.65 1015.00 1015.75 1016.39 1017.32 1017.56 1018.00 1018.58 1019.02 1019.73 1020.16 1020.76 1021.18 1021.75 1022.18
1011.33 1011.08 1010.89 1011.18 1011.31 1011.24 1010.84 1009.39 1009.91 1010.87 1011.50 1012.16 1012.25 1012.64 1012.75 1012.97 1012.74 1012.22 1011.59 1011.03 1010.93 1010.85 1010.79 1010.70 1010.98 1011.31 1011.91 1012.21 1012.49 1013.24 1013.73 1014.15 1014.41 1014.51 1014.64 1015.05 1016.19 1016.45 1017.06 1017.57 1018.43 1018.76 1019.10 1019.52 1020.03 1020.53 1020.86 1021.48 1021.96
1010.98 1011.28 1011.53 1011.54 1011.55 1010.44 1011.02 1009.06 1009.27 1010.13 1010.92 1011.77 1012.11 1012.56 1012.96 1013.53 1013.31 1012.75 1012.36 1011.95 1011.58 1011.31 1010.83 1010.74 1011.10 1011.35 1011.53 1012.05 1012.30 1013.10 1013.71 1013.95 1014.47 1014.79 1015.05 1015.75 1016.51 1016.83 1017.44 1017.49 1017.99 1018.82 1018.85 1019.20 1019.75 1020.26 1020.79 1021.22 1021.64
1011.11 1011.86 1011.84 1011.78 1011.45 1011.11 1010.35 1010.18 1008.46 1010.02 1010.36 1011.17 1012.09 1012.73 1013.34 1013.77 1013.72 1013.29 1012.90 1012.41 1012.12 1011.69 1011.47 1011.35 1011.21 1011.51 1011.69 1012.02 1012.18 1013.03 1013.54 1014.16 1014.55 1014.62 1015.56 1016.23 1016.95 1017.40 1018.12 1017.89 1018.38 1018.76 1018.63 1018.91 1019.60 1019.99 1020.42 1020.94 1021.14
1011.88 1012.13 1012.24 1012.11 1011.61 1010.60 1009.58 1009.95 1008.01 1009.11 1009.97 1011.25 1012.10 1012.67 1013.55 1013.92 1014.10 1013.80 1013.38 1012.94 1012.60 1012.36 1012.20 1012.01 1011.93 1012.21 1012.26 1012.39 1012.89 1013.49 1013.87 1014.20 1014.91 1015.44 1016.11 1016.56 1017.31 1017.75 1018.38 1018.65 1019.04 1019.46 1019.52 1019.39 1019.72 1019.89 1020.14 1020.51 1020.84
1011.64 1011.72 1011.37 1011.27 1011.15 1009.80 1010.48 1010.25 1008.40 1009.37 1010.54 1011.37 1012.17 1012.74 1013.68 1014.16 1014.45 1014.40 1014.01 1013.53 1013.27 1012.99 1012.80 1012.79 1012.82 1012.94 1012.93 1012.81 1013.25 1013.59 1014.17 1014.69 1014.87 1015.77 1016.12 1017.00 1017.72 1018.08 1018.51 1019.17 1019.56 1020.09 1019.79 1019.96 1020.01 1019.93 1020.18 1020.47 1020.81
1010.76 1010.95 1010.84 1010.57 1010.23 1010.11 1010.84 1009.45 1008.58 1009.68 1010.75 1011.75 1012.57 1013.07 1013.77 1014.26 1014.75 1014.91 1014.78 1014.28 1013.97 1013.66 1013.51 1013.58 1013.66 1013.71 1013.64 1013.98 1014.27 1014.51 1014.76 1015.01 1015.56 1016.28 1016.73 1017.28 1017.89 1018.49 1018.91 1019.48 1020.32 1020.22 1020.01 1020.37 1020.39 1020.33 1020.55 1020.85 1021.07
1010.83 1010.90 1011.02 1010.90 1011.08 1010.13 1008.85 1008.51 1009.39 1010.05 1010.72 1011.61 1012.21 1012.91 1013.50 1014.27 1014.87 1015.26 1015.37 1015.19 1014.79 1014.48 1014.33 1014.37 1014.37 1014.48 1014.56 1014.66 1014.76 1015.11 1015.47 1015.77 1015.93 1016.54 1017.07 1017.97 1018.31 1018.91 1019.35 1019.67 1020.26 1020.28 1020.53 1020.60 1020.56 1020.52 1020.89 1021.24 1021.50
1009.84 1010.04 1010.75 1010.45 1009.78 1008.17 1007.13 1007.19 1006.71 1008.83 1009.61 1010.76 1011.66 1012.34 1013.18 1014.06 1014.97 1015.41 1015.73 1015.75 1015.62 1015.54 1015.37 1015.22 1015.19 1015.33 1015.38 1015.34 1015.46 1015.76 1015.81 1016.36 1016.60 1017.23 1017.73 1017.83 1018.48 1018.99 1019.44 1019.98 1020.07 1020.55 1020.72 1020.97 1021.17 1021.47 1021.57 1022.08 1022.53
1009.77 1009.42 1009.47 1009.23 1008.61 1007.19 1006.08 1005.52 1005.98 1007.09 1008.47 1009.69 1010.88 1011.95 1012.83 1013.71 1014.75 1015.44 1015.87 1016.09 1016.12 1016.20 1016.19 1016.16 1016.06 1016.00 1016.00 1016.03 1016.15 1016.31 1016.55 1016.94 1016.97 1017.72 1018.10 1018.61 1019.08 1019.29 1019.52 1019.91 1020.25 1020.78 1021.23 1021.63 1022.02 1022.14 1022.21 1022.65 1023.36
1007.87 1007.72 1007.93 1007.48 1007.59 1007.26 1006.75 1005.69 1006.39 1007.04 1008.18 1009.28 1010.49 1011.71 1012.63 1013.57 1014.68 1015.29 1015.80 1016.17 1016.41 1016.60 1016.71 1016.71 1016.74 1016.76 1016.89 1017.00 1016.73 1016.99 1017.41 1017.69 1018.13 1018.73 1019.04 1019.45 1019.84 1019.70 1020.01 1020.58 1020.94 1021.23 1021.42 1021.77 1021.99 1022.44 1022.85 1023.40 1023.84
Thickness
5757 5760 5766 5762 5738 5741 5736 5737 5746 5744 5753 5765 5769 5763 5764 5770 5765 5756 5773 5776 5775 5777 5774 5767 5765 5765 5760 5759 5757 5757 5754 5752 5751 5751 5751 5751 5750 5750 5751 5751 5753 5753 5755 5756 5756 5756 5755 5755 5754
5755 5758 5760 5750 5733 5729 5739 5743 5734 5741 5753 5761 5766 5767 5763 5760 5768 5768 5770 5772 5772 5771 5769 5764 5758 5759 5756 5754 5752 5752 5752 5750 5748 5747 5746 5746 5746 5746 5746 5747 5748 5749 5750 5752 5752 5751 5751 5750 5750
5752 5758 5745 5739 5734 5732 5735 5738 5736 5742 5751 5752 5757 5763 5760 5752 5759 5759 5764 5767 5768 5766 5763 5758 5753 5751 5750 5747 5747 5746 5746 5746 5744 5744 5743 5742 5742 5743 5741 5742 5743 5744 5745 5746 5747 5747 5746 5746 5745
5748 5748 5741 5728 5729 5728 5733 5739 5736 5739 5748 5751 5750 5747 5754 5753 5750 5755 5758 5758 5760 5759 5756 5750 5747 5745 5743 5742 5740 5741 5740 5741 5740 5740 5739 5738 5738 5739 5738 5737 5737 5739 5739 5740 5741 5741 5742 5741 5740
5744 5738 5723 5721 5725 5728 5735 5736 5735 5733 5737 5741 5744 5740 5741 5747 5749 5750 5751 5750 5749 5750 5749 5742 5738 5738 5737 5737 5735 5735 5734 5736 5735 5735 5735 5734 5735 5734 5734 5734 5732 5732 5733 5734 5736 5736 5736 5737 5735
5727 5729 5717 5718 5720 5723 5731 5735 5732 5729 5732 5735 5735 5736 5734 5742 5740 5739 5739 5740 5740 5740 5739 5736 5728 5729 5731 5732 5730 5729 5729 5730 5728 5729 5729 5730 5730 5730 5729 5730 5730 5727 5727 5729 5730 5730 5731 5732 5730
5723 5718 5715 5714 5714 5715 5725 5733 5729 5726 5725 5725 5727 5721 5730 5730 5729 5729 5726 5727 5729 5730 5730 5725 5723 5720 5722 5727 5724 5724 5726 5725 5724 5723 5723 5723 5723 5724 5724 5725 5727 5724 5722 5722 5723 5724 5726 5727 5726
5722 5717 5707 5711 5712 5714 5724 5724 5726 5722 5720 5727 5726 5717 5716 5716 5717 5716 5716 5711 5716 5718 5719 5712 5713 5713 5717 5716 5717 5719 5720 5721 5720 5717 5716 5716 5716 5716 5716 5718 5721 5721 5719 5717 5717 5719 5720 5720 5720
5718 5709 5709 5710 5706 5714 5721 5715 5722 5723 5716 5717 5718 5715 5712 5710 5706 5702 5699 5697 5698 5701 5705 5705 5704 5706 5709 5709 5713 5715 5711 5705 5710 5709 5709 5711 5711 5710 5709 5713 5712 5715 5715 5714 5712 5711 5713 5714 5713
5710 5707 5708 5714 5715 5712 5713 5711 5714 5709 5710 5708 5705 5707 5703 5700 5699 5693 5688 5687 5685 5687 5691 5697 5696 5695 5696 5700 5699 5704 5703 5695 5692 5697 5702 5707 5707 5708 5708 5705 5706 5706 5709 5709 5707 5705 5706 5712 5711
5705 5706 5710 5711 5712 5711 5708 5707 5710 5703 5696 5697 5691 5690 5687 5684 5682 5680 5680 5678 5678 5682 5680 5684 5687 5687 5686 5690 5688 5689 5692 5693 5682 5685 5692 5697 5697 5700 5701 5699 5698 5700 5702 5703 5702 5700 5705 5707 5708
5700 5709 5708 5709 5707 5704 5702 5708 5701 5698 5697 5692 5683 5680 5676 5673 5671 5668 5665 5666 5668 5670 5672 5675 5676 5678 5681 5682 5682 5682 5683 5683 5676 5671 5674 5680 5685 5691 5696 5699 5698 5700 5701 5699 5699 5699 5699 5701 5702
5699 5706 5706 5706 5702 5701 5702 5698 5695 5692 5689 5683 5676 5671 5667 5664 5663 5662 5658 5656 5656 5659 5662 5665 5669 5669 5669 5670 5676 5676 5673 5668 5668 5677 5661 5666 5671 5678 5684 5691 5691 5694 5694 5692 5692 5692 5693 5695 5697
5702 5700 5702 5703 5702 5699 5693 5695 5686 5692 5684 5676 5669 5665 5661 5655 5653 5652 5651 5650 5652 5652 5652 5654 5658 5663 5664 5664 5669 5672 5672 5669 5669 5663 5665 5671 5670 5669 5670 5680 5681 5686 5685 5684 5684 5685 5686 5687 5688
5694 5688 5699 5700 5698 5696 5692 5682 5682 5690 5678 5672 5665 5659 5651 5645 5642 5641 5640 5639 5641 5644 5645 5645 5647 5655 5657 5659 5664 5666 5669 5667 5664 5664 5663 5667 5670 5671 5667 5672 5674 5680 5680 5679 5680 5679 5680 5681 5681
5685 5684 5685 5695 5691 5690 5685 5680 5689 5681 5673 5668 5662 5655 5644 5639 5634 5632 5630 5630 5630 5635 5637 5640 5643 5647 5649 5653 5654 5656 5661 5665 5663 5668 5667 5671 5670 5665 5667 5667 5671 5673 5673 5673 5673 5673 5673 5674 5673
5682 5685 5679 5683 5688 5684 5679 5680 5682 5677 5670 5665 5658 5650 5641 5633 5626 5623 5619 5619 5621 5623 5629 5632 5634 5641 5643 5644 5649 5651 5651 5659 5660 5662 5664 5666 5666 5664 5662 5658 5663 5667 5667 5667 5667 5667 5667 5666 5666
5681 5676 5678 5675 5682 5677 5675 5675 5684 5675 5666 5661 5653 5645 5636 5626 5620 5611 5607 5606 5609 5613 5619 5623 5628 5635 5639 5639 5642 5645 5646 5650 5652 5658 5659 5658 5661 5655 5648 5650 5655 5659 5662 5661 5663 5661 5660 5661 5659
5678 5673 5673 5681 5679 5666 5674 5674 5677 5676 5663 5654 5646 5638 5628 5617 5610 5602 5597 5598 5601 5604 5611 5619 5625 5632 5634 5632 5638 5642 5644 5647 5644 5648 5654 5656 5654 5647 5643 5642 5652 5654 5658 5657 5657 5656 5656 5653 5652
5670 5669 5672 5677 5672 5664 5673 5670 5679 5667 5660 5647 5639 5632 5621 5610 5599 5590 5586 5590 5597 5603 5610 5618 5626 5631 5631 5631 5637 5639 5641 5641 5642 5641 5643 5647 5647 5647 5642 5643 5646 5648 5651 5651 5652 5651 5651 5648 5648
5667 5666 5670 5664 5667 5666 5660 5674 5666 5658 5652 5643 5639 5627 5617 5604 5594 5589 5588 5593 5598 5603 5610 5619 5623 5626 5627 5632 5635 5632 5631 5629 5630 5633 5639 5642 5641 5644 5641 5639 5637 5641 5644 5647 5648 5648 5648 5643 5643
5662 5670 5662 5657 5654 5659 5658 5665 5669 5662 5652 5642 5637 5626 5616 5599 5595 5593 5590 5590 5595 5601 5612 5619 5622 5625 5630 5631 5633 5626 5626 5628 5627 5626 5630 5632 5633 5637 5633 5635 5636 5636 5642 5645 5645 5645 5643 5642 5637
5665 5659 5657 5654 5653 5651 5658 5650 5681 5658 5653 5646 5634 5623 5612 5600 5597 5596 5595 5597 5598 5604 5609 5614 5621 5623 5627 5628 5630 5623 5622 5623 5623 5627 5626 5627 5625 5627 5625 5628 5628 5630 5638 5642 5640 5640 5640 5637 5637
5656 5651 5647 5647 5648 5647 5664 5653 5679 5665 5658 5642 5635 5626 5611 5602 5596 5596 5598 5600 5602 5604 5608 5612 5616 5617 5621 5624 5621 5615 5617 5618 5619 5620 5619 5621 5618 5620 5620 5622 5623 5623 5627 5632 5632 5633 5635 5635 5634
5654 5648 5641 5642 5636 5658 5644 5641 5671 5665 5650 5642 5633 5627 5613 5603 5596 5592 5595 5599 5602 5604 5607 5608 5609 5609 5611 5617 5615 5615 5614 5614 5618 5616 5617 5615 5613 5614 5616 5614 5616 5615 5619 5623 5624 5628 5629 5628 5627
5654 5655 5641 5632 5644 5648 5629 5640 5667 5660 5650 5640 5631 5625 5615 5605 5597 5592 5591 5597 5600 5603 5605 5605 5605 5605 5608 5608 5606 5606 5608 5609 5608 5607 5611 5610 5608 5607 5608 5608 5604 5609 5615 5614 5616 5619 5619 5618 5618
5645 5643 5652 5634 5624 5633 5653 5661 5653 5648 5644 5636 5632 5626 5620 5609 5599 5593 5591 5591 5597 5601 5603 5603 5603 5603 5605 5605 5605 5603 5601 5601 5604 5605 5605 5601 5604 5600 5601 5603 5601 5604 5605 5607 5608 5612 5609 5608 5607
5656 5658 5638 5640 5623 5644 5665 5661 5681 5648 5649 5641 5634 5630 5624 5615 5602 5596 5591 5590 5591 5593 5595 5598 5600 5599 5599 5600 5601 5600 5602 5598 5600 5597 5597 5601 5599 5598 5597 5596 5599 5598 5599 5599 5599 5597 5597 5594 5591
5642 5648 5647 5652 5649 5662 5667 5679 5684 5672 5661 5649 5641 5633 5627 5620 5608 5599 5594 5591 5590 5588 5589 5591 5593 5595 5596 5597 5597 5597 5597 5595 5598 5591 5592 5592 5591 5593 5595 5593 5593 5592 5590 5588 5586 5586 5586 5582 5576
5666 5663 5662 5657 5650 5653 5654 5674 5674 5673 5663 5655 5644 5634 5628 5621 5609 5602 5598 5593 5589 5586 5586 5588 5588 5589 5589 5589 5593 5594 5592 5589 5586 5582 5582 5582 5581 5584 5585 5584 5584 5583 5583 5581 5581 5578 5575 5570 5565